0 HST 1 20580U 90037B 26164.23141094 .00006133 00000-0 19317-3 0 9994 2 20580 28.4712 107.6084 0001932 101.0971 258.9842 15.30704754787962 0 ISS (ZARYA) 1 25544U 98067A 26164.12566316 .00008200 00000-0 15573-3 0 9993 2 25544 51.6335 320.1950 0004891 179.6545 180.4447 15.49201403571127 0 CXO 1 25867U 99040B 26166.73124906 .00000579 00000-0 00000-0 0 9994 2 25867 56.1776 116.6293 7842889 310.3072 0.0447 0.37804362 17312